Time,TemperatureF,DewpointF,PressureIn,WindDirection,WindDirectionDegrees,WindSpeedMPH,WindSpeedGustMPH,Humidity,HourlyPrecipIn,Conditions,Clouds,dailyrainin,SolarRadiationWatts/m^2,SoftwareType,DateUTC
2013-04-19 00:12:00,59.0,0.0,-100.00,ESE,112,8.0,12.0,9,0.00,,,0.00,0.000000,,2013-04-19 07:12:00,
2013-04-19 00:21:00,59.0,0.0,-100.00,ESE,112,8.0,12.0,9,0.00,,,0.00,0.000000,,2013-04-19 07:21:00,
2013-04-19 00:32:00,59.0,0.0,-100.00,ESE,112,8.0,12.0,9,0.00,,,0.00,0.000000,,2013-04-19 07:32:00,
2013-04-19 00:42:00,59.0,0.0,-100.00,ESE,112,8.0,12.0,9,0.00,,,0.00,0.000000,,2013-04-19 07:42:00,
2013-04-19 00:50:00,59.0,0.0,-100.00,East,100,7.0,15.0,9,0.00,,,0.00,0.000000,,2013-04-19 07:50:00,
2013-04-19 01:21:00,59.0,0.0,-100.00,East,100,7.0,15.0,9,0.00,,,0.00,0.000000,,2013-04-19 08:21:00,
2013-04-19 01:32:00,59.0,0.0,-100.00,East,100,7.0,15.0,9,0.00,,,0.00,0.000000,,2013-04-19 08:32:00,
2013-04-19 01:42:00,59.0,0.0,-100.00,East,100,7.0,15.0,9,0.00,,,0.00,0.000000,,2013-04-19 08:42:00,
2013-04-19 01:50:00,56.0,-2.0,-100.00,ENE,66,6.0,14.0,9,0.00,,,0.00,0.000000,,2013-04-19 08:50:00,
2013-04-19 02:11:00,56.0,-2.0,-100.00,ENE,66,6.0,14.0,9,0.00,,,0.00,0.000000,,2013-04-19 09:11:00,
2013-04-19 02:21:00,56.0,-2.0,-100.00,ENE,66,6.0,14.0,9,0.00,,,0.00,0.000000,,2013-04-19 09:21:00,
2013-04-19 02:32:00,56.0,-2.0,-100.00,ENE,66,6.0,14.0,9,0.00,,,0.00,0.000000,,2013-04-19 09:32:00,
2013-04-19 02:42:00,56.0,-2.0,-100.00,ENE,66,6.0,14.0,9,0.00,,,0.00,0.000000,,2013-04-19 09:42:00,
2013-04-19 02:50:00,57.0,1.0,-100.00,ENE,67,2.0,12.0,10,0.00,,,0.00,0.000000,,2013-04-19 09:50:00,
2013-04-19 03:13:00,57.0,1.0,-100.00,ENE,67,2.0,12.0,10,0.00,,,0.00,0.000000,,2013-04-19 10:13:00,
2013-04-19 03:23:00,57.0,1.0,-100.00,ENE,67,2.0,12.0,10,0.00,,,0.00,0.000000,,2013-04-19 10:23:00,
2013-04-19 03:33:00,57.0,1.0,-100.00,ENE,67,2.0,12.0,10,0.00,,,0.00,0.000000,,2013-04-19 10:33:00,
2013-04-19 03:42:00,57.0,1.0,-100.00,ENE,67,2.0,12.0,10,0.00,,,0.00,0.000000,,2013-04-19 10:42:00,
2013-04-19 03:50:00,56.0,0.0,-100.00,NE,41,4.0,7.0,10,0.00,,,0.00,0.000000,,2013-04-19 10:50:00,
2013-04-19 04:11:00,56.0,0.0,-100.00,NE,41,4.0,7.0,10,0.00,,,0.00,0.000000,,2013-04-19 11:11:00,
2013-04-19 04:22:00,56.0,0.0,-100.00,NE,41,4.0,7.0,10,0.00,,,0.00,0.000000,,2013-04-19 11:22:00,
2013-04-19 04:32:00,56.0,0.0,-100.00,NE,41,4.0,7.0,10,0.00,,,0.00,0.000000,,2013-04-19 11:32:00,
2013-04-19 04:42:00,56.0,0.0,-100.00,NE,41,4.0,7.0,10,0.00,,,0.00,0.000000,,2013-04-19 11:42:00,
2013-04-19 04:50:00,57.0,1.0,-100.00,NE,50,5.0,10.0,10,0.00,,,0.00,0.000000,,2013-04-19 11:50:00,
2013-04-19 05:12:00,57.0,1.0,-100.00,NE,50,5.0,10.0,10,0.00,,,0.00,0.000000,,2013-04-19 12:12:00,
2013-04-19 05:22:00,57.0,1.0,-100.00,NE,50,5.0,10.0,10,0.00,,,0.00,0.000000,,2013-04-19 12:22:00,
2013-04-19 05:32:00,57.0,1.0,-100.00,NE,50,5.0,10.0,10,0.00,,,0.00,0.000000,,2013-04-19 12:32:00,
2013-04-19 05:42:00,57.0,1.0,-100.00,NE,50,5.0,10.0,10,0.00,,,0.00,0.000000,,2013-04-19 12:42:00,
2013-04-19 05:50:00,57.0,-1.0,-100.00,East,92,6.0,10.0,9,0.00,,,0.00,0.000000,,2013-04-19 12:50:00,
2013-04-19 06:11:00,57.0,-1.0,-100.00,East,92,6.0,10.0,9,0.00,,,0.00,0.000000,,2013-04-19 13:11:00,
2013-04-19 06:21:00,57.0,-1.0,-100.00,East,92,6.0,10.0,9,0.00,,,0.00,0.000000,,2013-04-19 13:21:00,
2013-04-19 06:32:00,57.0,-1.0,-100.00,East,92,6.0,10.0,9,0.00,,,0.00,0.000000,,2013-04-19 13:32:00,
2013-04-19 06:42:00,57.0,-1.0,-100.00,East,92,6.0,10.0,9,0.00,,,0.00,0.000000,,2013-04-19 13:42:00,
2013-04-19 06:50:00,60.0,3.0,-100.00,ENE,70,4.0,10.0,10,0.00,,,0.00,37.000000,,2013-04-19 13:50:00,
2013-04-19 07:11:00,60.0,3.0,-100.00,ENE,70,4.0,10.0,10,0.00,,,0.00,37.000000,,2013-04-19 14:11:00,
2013-04-19 07:21:00,60.0,3.0,-100.00,ENE,70,4.0,10.0,10,0.00,,,0.00,37.000000,,2013-04-19 14:21:00,
2013-04-19 07:32:00,60.0,3.0,-100.00,ENE,70,4.0,10.0,10,0.00,,,0.00,37.000000,,2013-04-19 14:32:00,
2013-04-19 07:42:00,60.0,3.0,-100.00,ENE,70,4.0,10.0,10,0.00,,,0.00,37.000000,,2013-04-19 14:42:00,
2013-04-19 07:50:00,63.0,3.0,-100.00,NE,52,6.0,11.0,9,0.00,,,0.00,283.000000,,2013-04-19 14:50:00,
2013-04-19 08:12:00,63.0,3.0,-100.00,NE,52,6.0,11.0,9,0.00,,,0.00,283.000000,,2013-04-19 15:12:00,
2013-04-19 08:21:00,63.0,3.0,-100.00,NE,52,6.0,11.0,9,0.00,,,0.00,283.000000,,2013-04-19 15:21:00,
2013-04-19 08:33:00,63.0,3.0,-100.00,NE,52,6.0,11.0,9,0.00,,,0.00,283.000000,,2013-04-19 15:33:00,
2013-04-19 08:43:00,63.0,3.0,-100.00,NE,52,6.0,11.0,9,0.00,,,0.00,283.000000,,2013-04-19 15:43:00,
2013-04-19 08:50:00,69.0,2.0,-100.00,East,82,8.0,13.0,7,0.00,,,0.00,472.000000,,2013-04-19 15:50:00,
2013-04-19 09:12:00,69.0,2.0,-100.00,East,82,8.0,13.0,7,0.00,,,0.00,472.000000,,2013-04-19 16:12:00,
2013-04-19 09:23:00,69.0,2.0,-100.00,East,82,8.0,13.0,7,0.00,,,0.00,472.000000,,2013-04-19 16:23:00,
2013-04-19 09:32:00,69.0,2.0,-100.00,East,82,8.0,13.0,7,0.00,,,0.00,472.000000,,2013-04-19 16:32:00,
2013-04-19 09:42:00,69.0,2.0,-100.00,East,82,8.0,13.0,7,0.00,,,0.00,472.000000,,2013-04-19 16:42:00,
2013-04-19 09:50:00,70.0,3.0,-100.00,ESE,107,8.0,15.0,7,0.00,,,0.00,800.000000,,2013-04-19 16:50:00,
2013-04-19 10:12:00,70.0,3.0,-100.00,ESE,107,8.0,15.0,7,0.00,,,0.00,800.000000,,2013-04-19 17:12:00,
2013-04-19 10:21:00,70.0,3.0,-100.00,ESE,107,8.0,15.0,7,0.00,,,0.00,800.000000,,2013-04-19 17:21:00,
2013-04-19 10:32:00,70.0,3.0,-100.00,ESE,107,8.0,15.0,7,0.00,,,0.00,800.000000,,2013-04-19 17:32:00,
2013-04-19 10:42:00,70.0,3.0,-100.00,ESE,107,8.0,15.0,7,0.00,,,0.00,800.000000,,2013-04-19 17:42:00,
2013-04-19 10:50:00,71.0,4.0,-100.00,SE,130,12.0,21.0,7,0.00,,,0.00,1005.000000,,2013-04-19 17:50:00,
2013-04-19 11:13:00,71.0,4.0,-100.00,SE,130,12.0,21.0,7,0.00,,,0.00,1005.000000,,2013-04-19 18:13:00,
2013-04-19 11:22:00,71.0,4.0,-100.00,SE,130,12.0,21.0,7,0.00,,,0.00,1005.000000,,2013-04-19 18:22:00,
2013-04-19 11:33:00,71.0,4.0,-100.00,SE,130,12.0,21.0,7,0.00,,,0.00,1005.000000,,2013-04-19 18:33:00,
2013-04-19 11:42:00,71.0,4.0,-100.00,SE,130,12.0,21.0,7,0.00,,,0.00,1005.000000,,2013-04-19 18:42:00,
2013-04-19 11:50:00,75.0,3.0,-100.00,SE,131,11.0,19.0,6,0.00,,,0.00,1148.000000,,2013-04-19 18:50:00,
2013-04-19 12:11:00,75.0,3.0,-100.00,SE,131,11.0,19.0,6,0.00,,,0.00,1148.000000,,2013-04-19 19:11:00,
2013-04-19 12:21:00,75.0,3.0,-100.00,SE,131,11.0,19.0,6,0.00,,,0.00,1148.000000,,2013-04-19 19:21:00,
2013-04-19 12:32:00,75.0,3.0,-100.00,SE,131,11.0,19.0,6,0.00,,,0.00,1148.000000,,2013-04-19 19:32:00,
2013-04-19 12:41:00,75.0,3.0,-100.00,SE,131,11.0,19.0,6,0.00,,,0.00,1148.000000,,2013-04-19 19:41:00,
2013-04-19 12:50:00,77.0,5.0,-100.00,ESE,106,8.0,18.0,6,0.00,,,0.00,1218.000000,,2013-04-19 19:50:00,
2013-04-19 13:11:00,77.0,5.0,-100.00,ESE,106,8.0,18.0,6,0.00,,,0.00,1218.000000,,2013-04-19 20:11:00,
2013-04-19 13:22:00,77.0,5.0,-100.00,ESE,106,8.0,18.0,6,0.00,,,0.00,1218.000000,,2013-04-19 20:22:00,
2013-04-19 13:32:00,77.0,5.0,-100.00,ESE,106,8.0,18.0,6,0.00,,,0.00,1218.000000,,2013-04-19 20:32:00,
2013-04-19 13:41:00,77.0,5.0,-100.00,ESE,106,8.0,18.0,6,0.00,,,0.00,1218.000000,,2013-04-19 20:41:00,
2013-04-19 13:50:00,78.0,6.0,-100.00,SE,138,7.0,18.0,6,0.00,,,0.00,1209.000000,,2013-04-19 20:50:00,
2013-04-19 14:21:00,78.0,6.0,-100.00,SE,138,7.0,18.0,6,0.00,,,0.00,1209.000000,,2013-04-19 21:21:00,
2013-04-19 14:32:00,78.0,6.0,-100.00,SE,138,7.0,18.0,6,0.00,,,0.00,1209.000000,,2013-04-19 21:32:00,
2013-04-19 14:42:00,78.0,6.0,-100.00,SE,138,7.0,18.0,6,0.00,,,0.00,1209.000000,,2013-04-19 21:42:00,
2013-04-19 14:50:00,78.0,6.0,-100.00,ESE,116,7.0,17.0,6,0.00,,,0.00,1125.000000,,2013-04-19 21:50:00,
2013-04-19 15:22:00,78.0,6.0,-100.00,ESE,116,7.0,17.0,6,0.00,,,0.00,1125.000000,,2013-04-19 22:22:00,
2013-04-19 15:33:00,78.0,6.0,-100.00,ESE,116,7.0,17.0,6,0.00,,,0.00,1125.000000,,2013-04-19 22:33:00,
2013-04-19 15:42:00,78.0,6.0,-100.00,ESE,116,7.0,17.0,6,0.00,,,0.00,1125.000000,,2013-04-19 22:42:00,
2013-04-19 15:50:00,78.0,6.0,-100.00,SE,142,5.0,15.0,6,0.00,,,0.00,950.000000,,2013-04-19 22:50:00,
2013-04-19 16:11:00,78.0,6.0,-100.00,SE,142,5.0,15.0,6,0.00,,,0.00,950.000000,,2013-04-19 23:11:00,
2013-04-19 16:22:00,78.0,6.0,-100.00,SE,142,5.0,15.0,6,0.00,,,0.00,950.000000,,2013-04-19 23:22:00,
2013-04-19 16:32:00,78.0,6.0,-100.00,SE,142,5.0,15.0,6,0.00,,,0.00,950.000000,,2013-04-19 23:32:00,
2013-04-19 16:42:00,78.0,6.0,-100.00,SE,142,5.0,15.0,6,0.00,,,0.00,950.000000,,2013-04-19 23:42:00,
2013-04-19 16:50:00,77.0,5.0,-100.00,SE,130,6.0,14.0,6,0.00,,,0.00,746.000000,,2013-04-19 23:50:00,
2013-04-19 17:12:00,77.0,5.0,-100.00,SE,130,6.0,14.0,6,0.00,,,0.00,746.000000,,2013-04-20 00:12:00,
2013-04-19 17:21:00,77.0,5.0,-100.00,SE,130,6.0,14.0,6,0.00,,,0.00,746.000000,,2013-04-20 00:21:00,
2013-04-19 17:32:00,77.0,5.0,-100.00,SE,130,6.0,14.0,6,0.00,,,0.00,746.000000,,2013-04-20 00:32:00,
2013-04-19 17:41:00,77.0,5.0,-100.00,SE,130,6.0,14.0,6,0.00,,,0.00,746.000000,,2013-04-20 00:41:00,
2013-04-19 17:50:00,79.0,6.0,-100.00,SE,146,2.0,9.0,6,0.00,,,0.00,487.000000,,2013-04-20 00:50:00,
2013-04-19 18:11:00,79.0,6.0,-100.00,SE,146,2.0,9.0,6,0.00,,,0.00,487.000000,,2013-04-20 01:11:00,
2013-04-19 18:21:00,79.0,6.0,-100.00,SE,146,2.0,9.0,6,0.00,,,0.00,487.000000,,2013-04-20 01:21:00,
2013-04-19 18:32:00,79.0,6.0,-100.00,SE,146,2.0,9.0,6,0.00,,,0.00,487.000000,,2013-04-20 01:32:00,
2013-04-19 18:42:00,79.0,6.0,-100.00,SE,146,2.0,9.0,6,0.00,,,0.00,487.000000,,2013-04-20 01:42:00,
2013-04-19 18:50:00,74.0,9.0,-100.00,ESE,123,5.0,10.0,8,0.00,,,0.00,117.000000,,2013-04-20 01:50:00,
2013-04-19 19:11:00,74.0,9.0,-100.00,ESE,123,5.0,10.0,8,0.00,,,0.00,117.000000,,2013-04-20 02:11:00,
2013-04-19 19:21:00,74.0,9.0,-100.00,ESE,123,5.0,10.0,8,0.00,,,0.00,117.000000,,2013-04-20 02:21:00,
2013-04-19 19:32:00,74.0,9.0,-100.00,ESE,123,5.0,10.0,8,0.00,,,0.00,117.000000,,2013-04-20 02:32:00,
2013-04-19 19:42:00,74.0,9.0,-100.00,ESE,123,5.0,10.0,8,0.00,,,0.00,117.000000,,2013-04-20 02:42:00,
2013-04-19 20:21:00,69.0,8.0,-100.00,WSW,240,0.0,9.0,9,0.00,,,0.00,11.000000,,2013-04-20 03:21:00,
2013-04-19 20:33:00,69.0,8.0,-100.00,WSW,240,0.0,9.0,9,0.00,,,0.00,11.000000,,2013-04-20 03:33:00,
2013-04-19 20:50:00,66.0,12.0,-100.00,WNW,284,11.0,16.0,12,0.00,,,0.00,0.000000,,2013-04-20 03:50:00,
2013-04-19 21:23:00,66.0,12.0,-100.00,WNW,284,11.0,16.0,12,0.00,,,0.00,0.000000,,2013-04-20 04:23:00,
2013-04-19 21:32:00,66.0,12.0,-100.00,WNW,284,11.0,16.0,12,0.00,,,0.00,0.000000,,2013-04-20 04:32:00,
2013-04-19 21:42:00,66.0,12.0,-100.00,WNW,284,11.0,16.0,12,0.00,,,0.00,0.000000,,2013-04-20 04:42:00,
2013-04-19 21:50:00,66.0,14.0,-100.00,WNW,287,13.0,19.0,13,0.00,,,0.00,0.000000,,2013-04-20 04:50:00,
2013-04-19 22:12:00,66.0,14.0,-100.00,WNW,287,13.0,19.0,13,0.00,,,0.00,0.000000,,2013-04-20 05:12:00,
2013-04-19 22:21:00,66.0,14.0,-100.00,WNW,287,13.0,19.0,13,0.00,,,0.00,0.000000,,2013-04-20 05:21:00,
2013-04-19 22:32:00,66.0,14.0,-100.00,WNW,287,13.0,19.0,13,0.00,,,0.00,0.000000,,2013-04-20 05:32:00,
2013-04-19 22:42:00,66.0,14.0,-100.00,WNW,287,13.0,19.0,13,0.00,,,0.00,0.000000,,2013-04-20 05:42:00,
2013-04-19 22:50:00,64.0,12.0,-100.00,WNW,300,12.0,19.0,13,0.00,,,0.00,0.000000,,2013-04-20 05:50:00,
2013-04-19 23:12:00,64.0,12.0,-100.00,WNW,300,12.0,19.0,13,0.00,,,0.00,0.000000,,2013-04-20 06:12:00,
2013-04-19 23:21:00,64.0,12.0,-100.00,WNW,300,12.0,19.0,13,0.00,,,0.00,0.000000,,2013-04-20 06:21:00,
2013-04-19 23:31:00,64.0,12.0,-100.00,WNW,300,12.0,19.0,13,0.00,,,0.00,0.000000,,2013-04-20 06:31:00,
2013-04-19 23:42:00,64.0,12.0,-100.00,WNW,300,12.0,19.0,13,0.00,,,0.00,0.000000,,2013-04-20 06:42:00,
2013-04-19 23:50:00,65.0,13.0,-100.00,WNW,286,16.0,24.0,13,0.00,,,0.00,0.000000,,2013-04-20 06:50:00,